星链-5487 (STARLINK-5487 )

导读

STARLINK-5487是美国太空探索技术公司(SpaceX)星链卫星互联网项目的组网卫星,于2023年2月17日发射升空。星链项目旨在构建全球覆盖的低轨卫星互联网,该卫星入轨后承担卫星通信服务任务,助力提升星链星座全球覆盖密度与网络服务能力,拓展全球宽带互联网接入覆盖范围。

Basic Information
目录编号:
55652
目录名称:
STARLINK-5487
国际标识:
2023-021AA
轨道中心:
EARTH
卫星名称:
星链-5487
卫星全名:
星链-5487 (STARLINK-5487 )
卫星状态:
在轨 (已飞行1303 天)
发射日期:
2023-02-17 UTC
国别 :
美国 (US)
星等 :
--
This satellite is enrolled in the Space Conjunction Data Service (SCDS) and the current flight risk assessment level is: No High Risk
Orbit Information
数据来源 国际轨道数据
星历时间: 2026-09-12T05:17:58+0800
17小时前
查看轨道信息
半长轴: 6950.189km
偏心率: 0.0002625
轨道倾角: 69.999°
近地点辐角 265.377°
升交点赤经 74.921°
平近点角 94.709°
近地点: 570.227km
远地点: 573.877km
周期: 96.107分钟
每日圈数: 14.983314
Detailed Information
固有亮度:
5
最大亮度:
2.5
卫星平台:
Starlink v1.5
覆盖范围:
全球
运营商:
太空探索技术公司
运营商所在国:
美国
制造商(研发单位):
太空探索技术公司
制造商所在国:
美国
使用方式:
暂无
Satellite Introduction
星链(Starlink)计划是由太空探索技术公司(SpaceX)提出的一个巨型低轨卫星互联网星座项目,计划在2019年至2024年间在太空搭建由约1.2万颗卫星组成的“星链”网络,其中1584颗将部署在地球上空550千米处的近地轨道,并从2020年开始工作。该卫星仍在工作。
2D Orbit Map
3D Orbit Map
Orbit Altitude Analysis Chart
Orbit Inclination Analysis Chart
Orbit Comprehensive Analysis Chart
View Comprehensive Chart
Conjunction Data List
Event ID Objects TCA Miss Dist (km) Collision Risk Probability Collision Risk Index (CRI) Action
CDM_260911-153102-544205-565225
2026-09-11T
15:31:08+0000
1.831 km
极远距离
3.583531E-6 低风险 0.46
CDM_260908-115602-545405-565223
2026-09-08T
11:56:39+0000
2.725 km
极远距离
1.277483E-6 低风险 0.37
Miss Distance Evolution Trend with All Objects
Collision Probability Evolution Trend with All Objects